This is the latest recevied weather packets stored in our database for station/object K8RRT. If no packets are shown the sender has not sent any weather packets the latest 10 day(s).
| Time | Temp. | Humidity | Pressure | Rain* | Wind** | Luminosity | Snow |
|---|---|---|---|---|---|---|---|
| 1777845063 | 17.78° C | 37% | 1011.4 hPa | 0 mm | - | 332 W/m² | - |
| 1777844762 | 17.78° C | 38% | 1011.5 hPa | 0 mm | - | 366 W/m² | - |
| 1777844458 | 17.78° C | 36% | 1011.6 hPa | 0 mm | - | 389 W/m² | - |
| 1777844157 | 17.78° C | 38% | 1011.6 hPa | 0 mm | - | 423 W/m² | - |
| 1777843853 | 17.78° C | 37% | 1011.8 hPa | 0 mm | - | 457 W/m² | - |
| 1777843550 | 17.78° C | 34% | 1011.8 hPa | 0 mm | - | 439 W/m² | - |
| 1777843247 | 17.22° C | 38% | 1011.6 hPa | 0 mm | - | 439 W/m² | - |
| 1777842945 | 17.22° C | 36% | 1011.6 hPa | 0 mm | - | 440 W/m² | - |
| 1777842640 | 17.22° C | 35% | 1011.7 hPa | 0 mm | - | 441 W/m² | - |
| 1777842337 | 17.22° C | 38% | 1011.7 hPa | 0 mm | - | 359 W/m² | - |
| 1777842033 | 16.67° C | 39% | 1011.9 hPa | 0 mm | - | 448 W/m² | - |
| 1777841730 | 17.22° C | 38% | 1011.7 hPa | 0 mm | - | 496 W/m² | - |
| 1777841426 | 17.22° C | 40% | 1011.9 hPa | 0 mm | - | 507 W/m² | - |
| 1777841123 | 17.22° C | 34% | 1011.9 hPa | 0 mm | - | 434 W/m² | - |
| 1777840820 | 17.22° C | 39% | 1012.2 hPa | 0 mm | - | 487 W/m² | - |
| 1777840517 | 17.78° C | 39% | 1012.1 hPa | 0 mm | - | 526 W/m² | - |
| 1777840214 | 17.78° C | 39% | 1012.3 hPa | 0 mm | - | 555 W/m² | - |
| 1777839912 | 17.22° C | 42% | 1012.1 hPa | 0 mm | - | 556 W/m² | - |
| 1777839610 | 17.22° C | 39% | 1012.3 hPa | 0 mm | - | 546 W/m² | - |
| 1777839308 | 16.67° C | 38% | 1012.5 hPa | 0 mm | - | 480 W/m² | - |
| 1777839005 | 16.67° C | 40% | 1012.5 hPa | 0 mm | - | 405 W/m² | - |
| 1777838701 | 17.22° C | 38% | 1012.7 hPa | 0 mm | - | 556 W/m² | - |
| 1777838397 | 16.67° C | 40% | 1012.5 hPa | 0 mm | - | 594 W/m² | - |
| 1777838095 | 16.67° C | 39% | 1012.8 hPa | 0 mm | - | 619 W/m² | - |
| 1777837791 | 16.67° C | 40% | 1012.8 hPa | 0 mm | - | 652 W/m² | - |
* Rain latest hour (hover to see other rain measurements)
** Current wind speed in m/s (hover to see current wind gust speed)